Mount Holly, NJ

12:24 PM EST on December 07, 2019 (GMT -0500)
South Jersey Regional

Weather History for KVAY - September, 2019

Change the Weather History Date:

Sunday, September 22, 2019

  Actual Average (WUND) Record (WUND)
Temperature  
Mean Temperature 71 °F -  
Max Temperature 88 °F - - (-1)
Min Temperature 54 °F - - (-1)
Cooling Degree Days 6    
Growing Degree Days 21 (Base 50)    
Moisture  
Dew Point 60 °F    
Average Humidity 80    
Maximum Humidity 97    
Minimum Humidity 46    
Precipitation  
Precipitation 0.00 in - - ()
Sea Level Pressure  
Sea Level Pressure 30.13 in    
Wind  
Wind Speed 1 mph (South)    
Max Wind Speed 6 mph    
Max Gust Speed -    
Visibility 8 miles    
Events      
Averages and records for this station are not official NWS values.
T = Trace of Precipitation, MM = Missing Value Source: NWS Daily Summary

Daily Weather History Graph

Daily Weather History Graph

Search for Another Location

Airport or City:

Astronomy

Sep. 22, 2019 Rise Set
Actual Time 6:46 AM EDT 6:56 PM EDT
Civil Twilight 6:19 AM EDT 7:23 PM EDT
Nautical Twilight 5:48 AM EDT 7:55 PM EDT
Astronomical Twilight 5:15 AM EDT 8:27 PM EDT
Moon No Moon Rise 2:49 PM EDT (9/22)
Length of Visible Light 13h 04m
Length of Day
12h 10m
Last Quarter, 44% of the Moon is Illuminated
Sep 22
Last Quarter
Sep 28
New
Oct 5
First Quarter
Oct 13
Full
Oct 21
Last Quarter

Hourly Weather History & Observations

Time (EDT) Temp. Heat Index Dew Point Humidity Pressure Visibility Wind Dir Wind Speed Gust Speed Precip Events Conditions
12:54 AM 59.0 °F - 55.9 °F 90% 30.19 in 8.0 mi Calm Calm - N/A   Clear
1:38 AM 57.0 °F - 55.9 °F 96% 30.19 in 1.8 mi Calm Calm - N/A   Partly Cloudy
1:50 AM 57.2 °F - 55.4 °F 94% 30.18 in 4.0 mi Calm Calm - N/A   Clear
1:54 AM 57.0 °F - 55.0 °F 93% 30.19 in 9.0 mi Calm Calm - N/A   Clear
2:54 AM 57.0 °F - 55.0 °F 93% 30.18 in 10.0 mi Calm Calm - N/A   Clear
3:18 AM 55.9 °F - 55.0 °F 97% 30.17 in 9.0 mi Calm Calm - N/A   Scattered Clouds
3:27 AM 57.0 °F - 55.0 °F 93% 30.17 in 10.0 mi Calm Calm - N/A   Mostly Cloudy
3:54 AM 55.9 °F - 54.0 °F 93% 30.17 in 6.0 mi Calm Calm - N/A   Mostly Cloudy
4:32 AM 55.9 °F - 54.0 °F 93% 30.17 in 7.0 mi Calm Calm - N/A   Scattered Clouds
4:44 AM 55.9 °F - 54.0 °F 93% 30.17 in 8.0 mi Calm Calm - N/A   Mostly Cloudy
4:54 AM 55.9 °F - 54.0 °F 93% 30.17 in 6.0 mi Calm Calm - N/A   Mostly Cloudy
5:23 AM 55.9 °F - 54.0 °F 93% 30.17 in 1.5 mi Calm Calm - N/A   Overcast
5:32 AM 55.0 °F - 54.0 °F 96% 30.17 in 1.0 mi Calm Calm - N/A   Mist
5:37 AM 54.0 °F - 53.1 °F 97% 30.17 in 2.0 mi Calm Calm - N/A   Overcast
5:54 AM 55.0 °F - 54.0 °F 96% 30.17 in 5.0 mi Calm Calm - N/A   Scattered Clouds
6:54 AM 55.9 °F - 54.0 °F 93% 30.17 in 10.0 mi Calm Calm - N/A   Clear
7:54 AM 59.0 °F - 57.9 °F 96% 30.18 in 9.0 mi Calm Calm - N/A   Clear
8:54 AM 66.9 °F - 64.0 °F 90% 30.18 in 10.0 mi Calm Calm - N/A   Clear
10:54 AM 79.0 °F - 66.9 °F 66% 30.16 in 10.0 mi Variable 4.6 mph - N/A   Clear
11:54 AM 82.9 °F 85.0 °F 66.0 °F 56% 30.15 in 10.0 mi Variable 3.5 mph - N/A   Clear
12:54 PM 86.0 °F 88.2 °F 66.0 °F 51% 30.12 in 10.0 mi Variable 4.6 mph - N/A   Clear
1:54 PM 88.0 °F 89.6 °F 64.9 °F 46% 30.10 in 10.0 mi Variable 5.8 mph - N/A   Partly Cloudy
2:54 PM 87.1 °F 89.2 °F 66.0 °F 49% 30.07 in 10.0 mi Variable 3.5 mph - N/A   Scattered Clouds
3:54 PM 86.0 °F 87.6 °F 64.9 °F 49% 30.05 in 10.0 mi Variable 3.5 mph - N/A   Scattered Clouds
4:54 PM 87.1 °F 88.3 °F 64.0 °F 46% 30.04 in 10.0 mi Variable 4.6 mph - N/A   Partly Cloudy
5:54 PM 84.0 °F 85.8 °F 64.9 °F 53% 30.04 in 10.0 mi Variable 3.5 mph - N/A   Clear
6:54 PM 79.0 °F - 64.9 °F 62% 30.04 in 10.0 mi Calm Calm - N/A   Clear
7:54 PM 75.9 °F - 66.9 °F 74% 30.04 in 10.0 mi Calm Calm - N/A   Clear
8:54 PM 73.9 °F - 66.0 °F 76% 30.05 in 10.0 mi Calm Calm - N/A   Clear
9:54 PM 73.0 °F - 66.0 °F 79% 30.04 in 10.0 mi South 4.6 mph - N/A   Clear
10:54 PM 71.1 °F - 66.0 °F 84% 30.04 in 10.0 mi South 3.5 mph - N/A   Clear
11:54 PM 70.0 °F - 66.0 °F 87% 30.02 in 10.0 mi Calm Calm - N/A   Clear